www.pogodaiklimat.ru

Погода и климат >> Архив погоды >> Великобритания >> Леучарс


ПОГОДА в Леучарсе

  • Прогноз погоды в Леучарсе
  • Монитор погоды в Леучарсе

АРХИВ ПОГОДЫ в Леучарсе

Время (UTC), дата Ветер
(напр.,м/с)
 
Видим.   Явления Облачность Т
(С)
Тd
(С)
f
(%)
Тe
(С)
Тes
(С)
Комфортность P
(гПа)
Po
(гПа)
Тmin
(С)
Tmax
(С)
R
(мм)
R24
(мм)
S
(см)
19 16.09 З 5 28 км н/о +13.0 +7.0 67 +11 +11 1020.8 1019.6
20 16.09 З 8 26 км н/о +12.1 +7.2 72 +9 +9 1020.7 1019.5
21 16.09 ЮЗ 7 25 км н/о +11.7 +7.2 74 +9 +9 1021.0 1019.8
22 16.09 З 7 26 км н/о +11.6 +6.5 71 +9 +9 1021.0 1019.8
23 16.09 З 5 26 км н/о +10.9 +6.1 72 +8 +8 1021.1 1019.9
00 17.09 З 5 27 км н/о +11.1 +6.2 72 +8 +8 1021.4 1020.1
01 17.09 З 4 26 км н/о +10.0 +6.2 77 +7 +7 1021.6 1020.4
02 17.09 З 3 24 км н/о +9.5 +5.3 75 +8 +8 1021.7 1020.5
03 17.09 СЗ 3 23 км н/о +9.1 +4.5 73 +7 +7 1022.0 1020.8
04 17.09 З 2 21 км н/о +9.2 +3.2 66 +8 +8 1022.4 1021.2
05 17.09 СЗ 4 18 км н/о +8.3 +4.2 75 +5 +5 1022.5 1021.2
06 17.09 СЗ 4 19 км н/о +9.1 +3.3 67 +6 +6 1023.1 1021.8 +7.0
07 17.09 ЮЗ 3 19 км н/о +7.9 +4.0 76 +6 +6 1024.1 1022.9
08 17.09 З 5 20 км н/о +10.8 +3.3 60 +8 +8 1024.5 1023.3
09 17.09 СЗ 6 21 км н/о +11.8 +3.4 56 +9 +9 1024.8 1023.6
10 17.09 СЗ 5 23 км н/о +12.5 +3.7 55 +10 +10 1025.2 1023.9
11 17.09 СЗ 5 25 км н/о +13.4 +3.1 50 +12 +12 1025.8 1024.6
12 17.09 СЗ 4 24 км н/о +14.0 +3.1 48 +13 +13 1025.9 1024.7
13 17.09 СЗ 5 25 км н/о +13.8 +2.8 47 +12 +12 1026.2 1024.9
14 17.09 СЗ 4 25 км н/о +14.6 +3.7 48 +14 +14 1026.5 1025.3
15 17.09 СЗ 4 24 км н/о +14.1 +3.8 50 +13 +13 1026.5 1025.3
16 17.09 СЗ 2 22 км н/о +13.9 +4.3 52 +14 +14 1026.5 1025.3
17 17.09 З 3 21 км н/о +13.5 +4.7 55 +12 +12 1026.6 1025.4
18 17.09 З 2 20 км н/о +12.8 +4.7 58 +13 +13 1026.6 1025.4 +14.9
19 17.09 З 2 17 км н/о +11.0 +6.1 72 +10 +10 1027.3 1026.1
20 17.09 З 2 17 км н/о +10.5 +6.4 76 +10 +10 1027.6 1026.4
21 17.09 СЗ 1 17 км н/о +9.5 +6.4 81 +9 +9 1028.4 1027.1
22 17.09 С 1 16 км н/о +8.5 +6.1 85 +8 +8 1028.3 1027.0
23 17.09 С 1 16 км н/о +9.5 +6.2 80 +9 +9 1028.3 1027.0
00 18.09 З 2 16 км н/о +9.5 +6.6 82 +8 +8 1028.5 1027.3
01 18.09 З 1 16 км слаб. ливневой дождь н/о +9.4 +6.5 82 +9 +9 1028.4 1027.2
02 18.09 СЗ 1 16 км дождь н/о +9.6 +6.9 83 +9 +9 1028.3 1027.0
03 18.09 З 2 16 км в посл. час дождь н/о +9.6 +6.8 83 +8 +8 1028.1 1026.9
04 18.09 З 2 16 км н/о +9.4 +6.9 84 +8 +8 1027.9 1026.7
05 18.09 З 2 16 км н/о +9.4 +6.9 84 +8 +8 1028.0 1026.7
06 18.09 З 2 17 км н/о +9.7 +6.8 82 +8 +8 1028.1 1026.9 +8.5 0.0
07 18.09 штиль 0 16 км н/о +9.9 +7.1 83 +9 +9 1028.2 1026.9
08 18.09 З 1 16 км н/о +10.3 +7.8 84 +10 +10 1028.5 1027.3
09 18.09 З 2 16 км н/о +11.3 +7.6 78 +10 +10 1028.6 1027.3
10 18.09 З 3 16 км н/о +12.7 +8.4 75 +11 +11 1028.2 1027.0
11 18.09 З 6 17 км н/о +13.7 +8.8 72 +12 +12 1028.0 1026.8
12 18.09 З 6 19 км н/о +16.0 +10.7 71 +15 +15 1027.9 1026.7
13 18.09 З 5 21 км н/о +16.4 +10.9 70 +15 +15 1027.7 1026.4
14 18.09 З 7 21 км н/о +16.7 +11.3 70 +16 +16 1027.5 1026.3
15 18.09 З 6 24 км н/о +17.5 +11.9 70 +17 +17 1027.4 1026.2
16 18.09 З 6 23 км н/о +17.4 +12.0 71 +17 +17 1027.2 1026.0
17 18.09 З 5 24 км н/о +17.6 +12.4 72 +17 +17 1027.3 1026.1
18 18.09 З 5 24 км н/о +16.5 +12.0 75 +16 +16 1027.5 1026.3 +18.0
19 18.09 З 5 22 км н/о +14.6 +12.0 84 +13 +13 1027.9 1026.7
20 18.09 З 5 24 км н/о +14.4 +12.0 85 +13 +13 1028.5 1027.3
21 18.09 В 1 11 км н/о +12.1 +10.7 91 +12 +12 1029.0 1027.8
22 18.09 ЮВ 1 10 км дымка н/о +11.1 +10.2 94 +11 +11 1029.3 1028.1
23 18.09 СВ 1 9000 м дымка н/о +9.7 +9.3 97 +9 +9 1029.6 1028.3
00 19.09 З 1 21 км н/о +9.0 +8.8 99 +8 +8 1029.6 1028.4
01 19.09 З 1 100 м туман н/о +8.8 +8.7 99 +8 +8 1029.6 1028.3
02 19.09 ЮЗ 1 400 м туман н/о +8.1 +8.0 99 +8 +8 1029.2 1028.0
03 19.09 З 3 5000 м в посл. час туман н/о +9.7 +9.7 100 +7 +7 1029.0 1027.7
04 19.09 З 3 10 км н/о +9.0 +9.0 100 +7 +7 1029.1 1027.9
05 19.09 З 6 200 м морось н/о +9.8 +9.8 100 +6 +6 1029.1 1027.9
06 19.09 З 5 200 м дождь н/о +10.1 +10.1 100 +7 +7 1029.3 1028.1 +6.7 0.0
07 19.09 З 6 3200 м в посл. час дождь н/о +10.7 +10.7 100 +7 +7 1029.4 1028.1
08 19.09 З 6 15 км н/о +11.7 +11.7 100 +9 +9 1029.8 1028.6
09 19.09 З 5 25 км н/о +12.4 +12.3 99 +10 +10 1029.9 1028.6
10 19.09 З 4 25 км н/о +13.3 +12.1 92 +11 +11 1029.9 1028.7
11 19.09 З 5 30 км н/о +14.2 +11.6 84 +12 +12 1029.5 1028.3
12 19.09 З 5 26 км н/о +16.0 +12.2 78 +15 +15 1029.2 1028.0 0.0
13 19.09 ЮЗ 5 28 км н/о +17.4 +12.7 74 +17 +17 1028.8 1027.6
14 19.09 ЮЗ 5 28 км н/о +18.3 +13.1 72 +18 +18 1028.3 1027.1
15 19.09 З 5 29 км н/о +19.1 +13.4 70 +20 +20 1027.8 1026.6
16 19.09 З 5 27 км н/о +19.3 +13.2 68 +20 +20 1027.5 1026.3
17 19.09 З 7 29 км н/о +18.7 +12.8 69 +19 +19 1027.2 1026.0
18 19.09 З 6 28 км н/о +16.9 +12.2 74 +16 +16 1026.9 1025.7 +19.4 0.0
19 19.09 З 3 26 км н/о +15.4 +11.9 80 +15 +15 1027.5 1026.3
20 19.09 З 4 25 км н/о +13.6 +11.4 87 +12 +12 1027.5 1026.3
21 19.09 З 3 25 км н/о +12.8 +10.3 85 +12 +12 1027.8 1026.5
22 19.09 ЮЗ 2 23 км н/о +12.4 +10.5 88 +11 +11 1027.9 1026.6
23 19.09 З 3 23 км н/о +11.6 +9.5 87 +10 +10 1027.8 1026.5
00 20.09 З 5 21 км н/о +11.6 +10.4 92 +9 +9 1027.5 1026.3
01 20.09 З 3 18 км н/о +11.4 +10.2 92 +9 +9 1027.3 1026.0
02 20.09 З 4 18 км н/о +10.7 +9.4 92 +8 +8 1027.0 1025.8
03 20.09 З 4 19 км н/о +10.9 +9.6 92 +9 +9 1026.7 1025.4
04 20.09 З 3 16 км н/о +9.7 +9.0 95 +7 +7 1026.1 1024.9
05 20.09 З 5 17 км н/о +9.3 +8.3 93 +6 +6 1025.7 1024.5
06 20.09 З 3 16 км н/о +8.7 +7.8 94 +6 +6 1026.0 1024.8 +8.5
07 20.09 З 4 13 км н/о +9.1 +8.4 95 +6 +6 1025.9 1024.6
08 20.09 З 2 16 км н/о +11.3 +9.3 87 +10 +10 1026.0 1024.8
09 20.09 ЮЗ 2 21 км н/о +13.8 +9.7 76 +13 +13 1025.9 1024.7
10 20.09 ЮЗ 2 21 км н/о +15.7 +10.6 72 +16 +16 1025.8 1024.6
11 20.09 З 1 18 км н/о +18.4 +9.4 56 +20 +20 1025.2 1024.0
12 20.09 ЮВ 3 18 км н/о +16.1 +10.1 68 +16 +16 1024.9 1023.7
13 20.09 В 4 14 км н/о +17.7 +10.7 64 +18 +18 1024.3 1023.1
14 20.09 В 3 13 км н/о +19.4 +12.3 63 +21 +21 комфорт 1023.3 1022.1
15 20.09 В 4 15 км н/о +18.1 +11.7 66 +18 +18 1022.4 1021.2
16 20.09 В 4 14 км н/о +17.4 +10.6 64 +17 +17 1021.8 1020.6
17 20.09 В 5 13 км н/о +15.3 +11.9 80 +14 +14 1021.5 1020.3
18 20.09 В 3 10 км в посл. час дождь н/о +13.7 +11.7 88 +12 +12 1021.3 1020.1 +19.6 0.0
19 20.09 СВ 2 7000 м в посл. час дождь н/о +11.8 +11.1 95 +11 +11 1021.0 1019.8
20 20.09 СВ 2 7000 м дымка н/о +10.9 +10.6 98 +10 +10 1020.6 1019.4
21 20.09 СВ 2 4000 м дымка н/о +10.8 +10.6 99 +9 +9 1020.4 1019.2
22 20.09 СВ 2 2200 м дымка н/о +10.4 +10.3 99 +9 +9 1019.8 1018.6
23 20.09 СВ 3 1700 м в посл. час туман н/о +9.9 +9.8 99 +7 +7 1019.5 1018.2
00 21.09 СВ 2 1700 м в посл. час туман н/о +9.5 +9.5 100 +8 +8 1018.9 1017.7 0.0
01 21.09 С 2 400 м туман н/о +8.5 +8.5 100 +6 +6 1018.6 1017.4
02 21.09 СВ 2 300 м туман н/о +7.7 +7.7 100 +5 +5 1018.1 1016.8
03 21.09 СЗ 1 200 м туман н/о +7.9 +7.9 100 +7 +7 1017.3 1016.1
04 21.09 В 1 100 м туман н/о +7.5 +7.5 100 +6 +6 1016.7 1015.4
05 21.09 В 2 200 м туман н/о +6.5 +6.5 100 +4 +4 1016.3 1015.1
06 21.09 В 1 500 м туман н/о +6.9 +6.9 100 +6 +6 1016.1 1014.9 +5.9 0.2
07 21.09 В 4 6000 м в посл. час туман н/о +11.6 +11.6 100 +9 +9 1015.6 1014.4
08 21.09 ЮВ 5 10 км н/о +13.2 +11.8 91 +11 +11 1015.5 1014.3
09 21.09 ЮВ 6 11 км н/о +14.0 +11.6 85 +12 +12 1015.4 1014.2
10 21.09 ЮВ 5 9000 м дым н/о +14.9 +11.8 82 +14 +14 1015.2 1014.0
11 21.09 В 6 9000 м дым н/о +15.3 +12.9 86 +14 +14 1014.7 1013.5
12 21.09 В 8 9000 м дым н/о +15.3 +12.7 84 +13 +13 1013.9 1012.7
13 21.09 В 7 9000 м дым н/о +15.2 +13.1 87 +13 +13 1013.2 1012.0
14 21.09 В 8 10 км н/о +15.6 +13.0 85 +14 +14 1012.2 1011.0
15 21.09 В 7 10 км н/о +15.8 +12.7 82 +14 +14 1011.5 1010.3
16 21.09 В 7 9000 м дым н/о +15.1 +12.6 85 +13 +13 1011.0 1009.8
17 21.09 ЮВ 8 10 км н/о +14.9 +12.5 86 +13 +13 1010.3 1009.1
18 21.09 ЮВ 7 8000 м дым н/о +13.9 +12.2 89 +12 +12 1010.1 1008.9 +16.1
19 21.09 В 6 7000 м дым н/о +13.4 +12.1 92 +11 +11 1010.2 1009.0
20 21.09 В 7 8000 м дым н/о +13.4 +12.1 92 +11 +11 1009.9 1008.7
21 21.09 В 6 7000 м дым н/о +13.5 +12.2 92 +11 +11 1009.2 1008.0
22 21.09 В 6 6000 м дым н/о +13.4 +12.4 94 +11 +11 1008.8 1007.6
23 21.09 В 3 6000 м дымка н/о +12.9 +12.1 95 +12 +12 1008.2 1007.0
00 22.09 ЮВ 3 5000 м дымка н/о +13.0 +12.5 97 +11 +11 1007.8 1006.6
01 22.09 ЮВ 5 5000 м дымка н/о +13.0 +12.4 96 +11 +11 1007.3 1006.1
02 22.09 В 3 5000 м дымка н/о +13.0 +12.4 96 +11 +11 1006.7 1005.5
03 22.09 В 4 4500 м дымка н/о +12.8 +12.3 97 +11 +11 1006.3 1005.1
04 22.09 В 3 3000 м дымка н/о +12.1 +11.8 98 +10 +10 1005.8 1004.6
05 22.09 В 3 3400 м дымка н/о +12.1 +11.9 99 +10 +10 1005.3 1004.1
06 22.09 В 3 4500 м дымка н/о +12.3 +12.0 98 +11 +11 1005.1 1003.9 +12.0
07 22.09 В 3 4800 м дымка н/о +13.0 +12.7 98 +11 +11 1005.1 1003.9
08 22.09 В 4 4900 м дымка н/о +13.3 +13.1 99 +11 +11 1005.2 1004.0
09 22.09 В 5 6000 м дымка н/о +13.9 +13.4 97 +12 +12 1005.0 1003.8
10 22.09 В 5 6000 м слаб. ливневой дождь н/о +14.7 +14.2 97 +13 +13 1004.8 1003.6
11 22.09 В 5 9000 м в посл. час дождь н/о +15.0 +13.9 93 +14 +14 1004.3 1003.1
12 22.09 В 5 8000 м дым н/о +14.8 +13.6 93 +13 +13 1004.0 1002.8 0.0
13 22.09 В 4 8000 м дым н/о +14.5 +13.5 94 +13 +13 1003.7 1002.5
14 22.09 В 4 8000 м дым н/о +15.0 +13.7 92 +14 +14 1003.1 1001.9
15 22.09 В 5 8000 м дым н/о +14.8 +13.5 92 +13 +13 1002.7 1001.5
16 22.09 В 6 6000 м ливневой дождь н/о +14.2 +13.6 96 +12 +12 1002.4 1001.2
17 22.09 В 5 8000 м в посл. час дождь н/о +14.0 +13.7 98 +12 +12 1002.4 1001.2
18 22.09 В 5 8000 м в посл. час дождь н/о +13.9 +13.7 99 +12 +12 1002.3 1001.1 +15.5 1
19 22.09 В 5 8000 м в посл. час дождь н/о +13.9 +13.6 98 +12 +12 1002.8 1001.6
20 22.09 В 4 8000 м дымка н/о +13.9 +13.6 98 +12 +12 1002.5 1001.3
21 22.09 В 5 7000 м дымка н/о +13.8 +13.6 99 +12 +12 1002.8 1001.6
22 22.09 В 5 7000 м дымка н/о +13.8 +13.7 99 +12 +12 1003.0 1001.8
23 22.09 СВ 3 6000 м дымка н/о +13.8 +13.7 99 +13 +13 1002.4 1001.2
00 23.09 В 4 3300 м сильн. ливневой дождь н/о +13.6 +13.6 100 +12 +12 1002.8 1001.6 3
01 23.09 СВ 4 5000 м слаб. дождь н/о +13.5 +13.5 100 +12 +12 1002.3 1001.2
02 23.09 В 2 500 м слаб. ливневой дождь н/о +13.5 +13.5 100 +13 +13 1002.7 1001.5
03 23.09 СЗ 1 400 м туман н/о +13.5 +13.5 100 +14 +14 1002.7 1001.5
04 23.09 СЗ 2 300 м слаб. ливневой дождь н/о +13.5 +13.5 100 +13 +13 1002.8 1001.6
05 23.09 З 2 700 м туман н/о +13.6 +13.6 100 +13 +13 1002.7 1001.5
06 23.09 Ю 1 500 м туман н/о +13.6 +13.6 100 +14 +14 1003.4 1002.2 +13.4 5
07 23.09 Ю 2 2800 м в посл. час туман н/о +13.9 +13.9 100 +13 +13 1003.9 1002.7
08 23.09 ЮЗ 2 7000 м дымка н/о +14.5 +14.5 100 +14 +14 1004.4 1003.2
09 23.09 Ю 2 21 км н/о +15.4 +15.1 98 +15 +15 1004.7 1003.5
10 23.09 В 2 22 км н/о +16.1 +14.4 90 +16 +16 1004.6 1003.4
11 23.09 ЮЗ 3 30 км н/о +16.3 +13.0 81 +16 +16 1004.8 1003.6
12 23.09 ЮЗ 4 30 км н/о +16.8 +12.4 75 +16 +16 1004.9 1003.7
13 23.09 ЮЗ 5 35 км н/о +18.2 +11.4 64 +18 +18 1004.9 1003.7
14 23.09 Ю 6 35 км н/о +17.9 +10.2 61 +17 +17 1004.9 1003.7
15 23.09 ЮЗ 5 30 км н/о +18.0 +9.5 58 +18 +18 1004.9 1003.7
16 23.09 Ю 4 30 км н/о +17.3 +9.7 61 +17 +17 1004.8 1003.7
17 23.09 Ю 3 28 км н/о +16.4 +10.1 66 +16 +16 1004.7 1003.5
18 23.09 Ю 3 35 км н/о +14.9 +9.6 71 +14 +14 1004.6 1003.4 +18.5
19 23.09 ЮВ 2 29 км н/о +13.6 +9.1 74 +13 +13 1004.6 1003.4

 

Местоположение метеостанции Леучарс (Великобритания): широта 56.40 долгота -2.87 высота над уровнем моря 10 м.

В архиве по умолчанию представлена погода в Леучарсе за последнюю неделю. Архивные данные за месяц целиком и за предыдущие месяцы, начиная с января 2011 года, Вы можете получить, выбрав интересующий диапазон дат из раскрывающегося списка и нажав кнопку "Ввод!".


*Определитесь, кто Вы:
робот инопланетянин человек

Внимание! Время в таблицах - всемирное. Для получения местного времени необходимо прибавить поправку, которая равна 0 ч.

Смотрите также архив погоды в соседних городах и на ближайших метеорологических станциях:

Погода в Страталлане (Великобритания) (54 км)
Погода в Эдинбурге (Великобритания) (60 км)
Погода в Инвербери (Великобритания) (62 км)
Погода на Кэрнуэлле (Великобритания) (63 км)
Погода в Абойне (Великобритания) (76 км)
Погода в Чартерхолле (Великобритания) (84 км)
Погода в Гленогле (Великобритания) (89 км)
Погода на Кайрнгорме (Великобритания) (93 км)
Погода в Абердине (Великобритания) (97 км)
Погода в Друмалбине (Великобритания) (102 км)

Пояснения к столбцам:

Ветер - указаны скорость ветра в м/с - средняя за 10 мин, порывы в срок и между сроками (в фигурных скобках) и направление, откуда дует ветер: С - северный, СВ - северо-восточный, В - восточный, ЮВ - юго-восточный, Ю - южный, ЮЗ - юго-западный, З - западный, СЗ - северо-западный.
Видимость - горизонтальная дальность видимости в метрах или километрах. При видимости от 1 до 10 км при отсутствии осадков обычно наблюдается дымка, при ухудшении видимости до 1 км и менее - туман. В сухую погоду видимость может ухудшаться дымом, пылью или мглою.
Явления - указаны атмосферные явления, наблюдавшиеся в срок или в последний час перед сроком; фигурными скобками обозначены явления, наблюдавшиеся между сроками (за 1-3 часа до срока); квадратными скобками обозначены град или гололедные отложения с указанием их диаметра в мм.
Облачность - указаны через наклонную черту общая и нижняя облачность в баллах и высота нижней границы облаков в метрах; квадратными скобками обозначены формы облаков: Ci - перистые, Cs - перисто-слоистые, Cc - перисто-кучевые, Ac - высококучевые, As - высокослоистые, Sc - слоисто-кучевые, Ns - слоисто-дождевые, Cu - кучевые, Cb - кучево-дождевые. Подробнее классификацию облаков см. в Атласе облаков (PDF).
T - Температура воздуха - температура, измеренная на высоте 2 м над землей.
Td - Температура точки росы - температура, при понижении до которой содержащийся в воздухе водяной пар достигнет насыщения.
f - Относительная влажность воздуха - влажноcть воздуха, измеренная на высоте 2 м над землей.
Te - Эффективная температура - температура, которую ощущает одетый по сезону человек в тени. Характеристика душности погоды. При расчете учитывается влияние влажности воздуха и скорости ветра на теплоощущения человека.
Tes - Эффективная температура на солнце - температура, которую ощущает человек, с поправкой на солнечный нагрев. Характеристика знойности погоды. Зависит от высоты солнца над горизонтом, облачности и скорости ветра. Ночью, в пасмурную погоду, а также при ветре 12 м/с и более поправка равна нулю.
P - Атмосферное давление - приведенное к уровню моря атмосферное давление.
Po - Атмосферное давление - измеренное на уровне метеостанции атмосферное давление.
Tmin - Минимальная температура - минимум температуры воздуха на высоте 2 м над землей.
Tmax - Максимальная температура - максимум температуры воздуха на высоте 2 м над землей.
R - Количество осадков - Количество выпавших осадков за период времени, мм. При наведении курсора мыши на число - период времени, за который выпало указанное количество осадков.
R24 - Количество осадков - Количество выпавших осадков за 24 часа, мм.
S - Снежный покров - Высота снежного покрова, см. При наведении курсора мыши на число - состояние снежного покрова и степень покрытия местности в баллах.